SCP
0 0 0 0 0 0 0 0 0 0 0 0 0 0 0 0 0 0 0 0 0 0 0 0 0 0 0 0 0 0 0 0 0 0 0 0 0 0 0 0 0 0 0
0 0 0 0 0 0 0 0 0 0 0 0 0 0 0 0 0 0 0 0 0 0 0 0 0 0 0 0 0 0 0 0 0 0 0 0 0 0 0 0 0 0 0
0 0 0 0 0 0 0 0 0 0 0 0 0 0 0 0 0 0 0 0 0 0 0 0 0 0 0 0 0 0 0 0 0 0 0 0 0 0 0 0 0 0 0
0 0 0 0 0 0 0 0 0 0 0 0 0 0 0 0 0 0 0 0 0 0 0 0 0 0 0 0 0 0 0 0 0 0 0 0 0 0 0 0 0 0 0
0 0 0 0 0 0 0 0 0 0 0 0 0 0 0 0 0 0 0 0 0 0 0 0 0 0 0 0 0 0 0 0 0 0 0 0 0 0 0 0 0 0 0
0 0 0 0 0 0 0 0 0 0 0 0 0 0 0 0 0 0 0 0 0 0 0 0 0 0 0 0 0 0 0 0 0 0 0 0 0 0 0 0 0 0 0
0 0 0 0 0 0 0 0 0 0 0 0 0 0 0 0 0 0 0 0 0 0 0 0 0 0 0 0 0 0 0 0 0 0 0 0 0 0 0 0 0 0 0
0 0 0 0 0 0 0 0 0 0 0 0 0 0 0 0 0 0 0 0 0 0 0 0 0 0 0 0 0 0 0 0 0 0 0 0 0 0 0 0 0 0 0
0 0 0 0 0 0 0 0 0 0 0 0 0 0 0 0 0 0 0 0 0 0 0 0 0 0 0 0 0 0 0 0 0 0 0 0 0 0 0 0 0 0 0
0 0 0 0 0 0 0 0 0 0 0 0 0 0 0 0 0 0 0 0 0 0 0 0 0 0 0 0 0 0 0 0 0 0 0 0 0 0 0 0 0 0 0
0 0 0 0 0 0 0 0 0 0 0 0 0 0 0 0 0 0 0 0 0 0 0 0 0 0 0 0 0 0 0 0 0 0 0 0 0 0 0 0 0 0 0
0 0 0 0 0 0 0 0 0 0 0 0 0 0 0 0 0 0 0 0 0 0 0 0 0 0 0 0 0 0 0 0 0 0 0 0 0 0 0 0 0 0 0
0 0 0 0 0 0 0 0 0 0 0 0 0 0 0 0 0 0 0 0 0 0 0 0 0 0 0 0 0 0 0 0 0 0 0 0 0 0 0 0 0 0 0
0 0 0 0 0 0 0 0 0 0 0 0 0 0 0 0 0 0 0 0 0 0 0 0 0 0 0 0 0 0 0 0 0 0 0 0 0 0 0 0 0 0 0
0 0 0 0 0 0 0 0 0 0 0 0 0 0 0 0 0 0 0 0 0 0 0 0 0 0 0 0 0 0 0 0 0 0 0 0 0 0 0 0 0 0 0
0 0 0 0 0 0 0 0 0 0 0 0 0 0 0 0 0 0 0 0 0 0 0 0 0 0 0 0 -0 -0 0 0 0 0 0 0 0 0 0 0 0 0 0
0 0 0 0 0 0 0 0 0 0 0 0 0 0 0 0 0 0 0 0 0 0 0 0 0 0 0 0 -0 -0 -0 0 0 0 0 0 0 0 0 0 0 0 0
0 0 0 0 0 0 0 0 0 0 0 0 0 0 0 0 0 0 0 0 0 0 0 0 0 0 0 0 0 -0 -0 0 0 0 0 0 0 0 0 0 0 0 0
0 0 0 0 0 0 0 0 0 0 0 0 0 0 0 0 0 0 0 0 0 0 0 0 0 0 0 0 0 0 0 0 0 0 0 0 0 0 0 0 0 0 0
0 0 0 0 0 0 0 0 0 0 0 0 0 0 0 0 0 0 0 0 0 0 0 0 0 0 0 0 0 0 0 0 0 0 0 0 0 0 0 0 0 0 0
0 0 0 0 0 0 0 0 0 0 0 0 0 0 0 0 0 0 0 0 0 0 0 0 0 0 0 0 0 0 0 0 0 0 0 0 0 0 0 0 0 0 0
0 0 0 0 0 0 0 0 0 0 0 0 0 0 0 0 0 0 0 0 0 0 0 0 0 0 0 0 0 0 0 0 0 0 0 0 0 0 0 0 0 0 0
0 0 0 0 0 0 0 0 0 0 0 0 0 0 0 0 0 0 0 0 0 0 0 0 0 0 0 0 0 0 0 0 0 0 0 0 0 0 0 0 0 0 0
0 0 0 0 0 0 0 0 0 0 0 0 0 0 0 0 0 0 0 0 0 0 0 0 0 0 0 0 0 0 0 0 0 0 0 0 0 0 0 0 0 0 0
0 0 0 0 0 0 0 0 0 0 0 0 0 0 0 0 0 0 0 0 0 0 0 0 0 0 0 0 0 0 0 0 0 0 0 0 0 0 0 0 0 0 0
0 0 0 0 0 0 0 0 0 0 0 0 0 0 0 0 0 0 0 0 0 0 0 0 0 0 0 0 0 0 0 0 0 0 0 0 0 0 0 0 0 0 0
Wind_Speed
1 1 1 1 1 1 1 1 1 2 2 3 3 3 3 3 3 3 3 7 8 7 7 7 7 7 7 7 8 8 8 8 8 8 9 9 9 9 9 9 10 10 10
1 1 1 1 1 1 1 1 1 2 2 2 3 3 3 3 3 3 3 4 7 7 8 8 7 7 7 7 7 7 8 8 8 8 9 9 9 9 10 10 10 11 11
2 1 1 1 1 1 1 1 1 1 1 2 2 2 2 2 2 2 2 2 3 6 8 8 8 8 7 7 7 8 8 9 9 8 8 9 9 9 10 10 10 11 12
2 1 1 1 1 1 1 1 1 1 1 1 1 1 1 2 2 3 3 3 3 3 6 8 9 9 8 8 8 8 8 9 9 9 9 9 9 10 10 11 11 11 12
2 1 1 1 1 1 1 1 1 1 1 1 1 1 1 1 2 2 3 3 3 3 3 6 9 10 10 9 9 9 9 9 10 10 10 10 10 10 11 11 11 12 12
2 2 1 2 1 1 1 1 1 1 1 1 1 2 1 0 1 1 1 2 2 3 3 4 3 5 9 11 11 10 10 10 10 10 11 11 11 11 11 12 12 12 13
2 2 1 2 2 1 1 1 1 1 1 1 1 1 1 0 1 1 1 1 1 2 2 3 2 2 3 8 11 11 11 11 11 11 11 12 12 12 12 13 13 13 13
2 1 1 1 1 1 1 1 1 0 0 1 0 1 1 1 1 1 1 1 1 1 2 2 2 2 2 2 6 10 11 12 12 12 12 13 13 13 13 14 14 14 14
1 1 1 1 1 1 0 0 0 0 1 1 0 0 1 1 2 1 1 1 1 1 2 2 2 2 3 2 2 7 11 12 12 13 14 14 14 15 14 15 15 15 15
1 1 1 0 0 0 0 0 0 0 0 1 1 1 1 1 1 2 2 1 1 2 2 2 2 2 2 2 3 7 10 11 12 13 14 15 15 15 16 16 16 16 16
0 0 0 0 0 0 0 0 0 0 0 1 1 1 1 1 1 2 3 2 2 2 2 2 2 2 2 2 2 5 9 11 12 13 14 15 15 16 17 16 17 17 17
0 0 0 0 0 0 0 0 0 0 0 0 1 1 1 1 1 1 3 3 3 3 3 2 2 2 2 2 3 7 9 11 13 14 14 15 15 16 16 17 17 18 18
0 0 0 0 0 0 0 0 0 0 0 0 1 1 1 1 1 1 2 3 4 3 2 2 2 2 2 2 3 8 9 11 13 14 15 15 16 16 16 17 18 18 19
0 1 1 1 1 1 0 1 1 0 0 0 1 1 1 1 1 1 1 2 4 4 2 3 2 2 2 2 5 9 6 12 14 15 16 16 17 17 17 17 18 19 19
0 0 1 1 1 1 1 1 1 0 0 0 0 0 0 1 1 1 1 1 2 4 5 3 2 2 2 3 6 5 5 11 14 15 16 17 17 17 18 18 18 19 20
0 1 1 1 1 1 1 1 0 0 0 0 1 0 1 1 1 1 1 2 2 3 5 3 3 3 4 5 8 6 6 13 13 15 16 17 17 18 18 18 18 19 20
1 1 1 1 0 0 0 0 0 1 1 1 1 1 2 2 2 2 2 2 2 3 6 5 3 4 4 5 6 5 6 6 7 13 16 17 17 18 18 18 18 19 19
1 1 1 1 0 0 0 0 1 1 1 2 2 2 3 2 2 2 2 3 3 3 5 7 5 4 5 5 6 6 7 6 6 12 15 17 17 18 18 18 18 19 18
1 1 1 1 1 0 0 1 1 1 2 2 2 3 3 2 3 3 3 3 3 4 4 5 7 5 5 5 6 6 6 5 7 9 13 15 16 17 18 18 19 18 18
1 1 1 1 1 0 0 1 1 2 2 2 3 3 3 3 4 3 3 4 4 4 4 5 6 6 5 5 4 5 7 5 6 7 10 12 14 16 17 18 18 19 19
1 1 1 1 0 1 1 1 2 2 2 3 3 3 4 4 4 4 4 4 4 4 4 5 6 6 6 5 5 5 7 7 7 5 6 7 8 7 8 13 16 18 19
0 0 1 1 1 1 2 2 2 2 3 3 4 4 4 4 5 6 7 7 6 6 6 6 6 7 8 7 6 6 7 8 8 3 5 8 6 7 7 6 14 19 19
0 1 1 1 1 2 3 3 3 3 3 3 4 4 4 4 4 4 6 8 8 9 9 8 8 8 8 7 7 8 8 9 10 7 7 9 6 8 7 9 18 19 20
1 1 2 2 2 3 3 4 4 3 4 4 4 4 5 5 5 4 4 5 6 7 8 7 7 8 7 6 6 8 9 9 9 6 5 8 7 8 8 8 15 18 19
1 2 2 2 3 4 4 4 4 3 4 5 5 4 5 5 7 7 5 6 7 7 8 9 11 11 13 12 9 6 6 6 8 6 3 5 6 8 8 7 9 15 17
2 2 2 2 3 3 4 4 4 2 4 4 4 4 5 6 8 8 5 5 7 7 6 7 8 9 8 9 10 6 5 6 7 7 3 4 5 6 8 5 5 7 9
Wind_Direction
22 29 35 33 6 4 35 27 35 35 35 36 38 37 38 41 45 48 43 41 37 30 27 26 23 27 29 28 24 25 21 18 19 14 8 3 1 357 353 352 351 349 350
21 34 23 21 6 8 10 32 41 49 37 39 37 35 41 39 42 52 45 37 36 28 24 24 19 17 18 17 16 13 13 9 6 5 1 358 356 354 350 346 344 343 341
18 27 30 27 353 349 11 36 59 62 61 45 39 33 43 45 40 43 40 36 33 30 22 18 16 11 9 7 5 4 2 2 356 355 356 354 350 347 342 341 337 338 335
13 7 13 15 334 353 27 41 70 62 55 42 21 18 39 46 42 41 42 38 31 28 21 19 14 9 5 359 356 356 356 354 353 349 347 346 344 341 337 334 331 329 329
4 19 7 356 354 15 37 38 56 85 76 31 13 18 42 50 42 49 50 41 35 33 26 20 18 13 8 359 352 348 348 349 349 349 345 343 341 339 336 332 330 328 326
11 12 3 350 359 28 30 40 41 30 78 41 360 3 12 39 68 58 57 50 39 32 29 21 15 6 8 4 357 348 345 345 347 346 345 341 338 335 331 328 326 324 323
5 14 6 356 355 15 18 19 54 59 56 58 28 343 328 259 129 63 51 55 43 32 29 19 16 9 358 358 354 351 346 345 346 345 343 341 335 332 328 325 323 321 320
353 1 5 349 344 2 28 14 30 23 332 34 65 334 312 325 7 358 24 35 40 13 8 11 2 357 359 1 350 348 344 342 340 339 337 336 332 326 324 322 321 319 318
343 353 346 337 341 4 86 33 60 53 234 272 75 169 239 259 321 302 343 345 23 5 341 349 347 352 346 355 343 342 339 335 335 335 333 330 330 323 319 318 317 316 315
320 328 332 324 342 359 64 241 95 260 195 242 268 313 256 220 246 292 292 307 351 325 323 323 318 320 322 320 331 337 333 330 331 328 326 324 323 321 316 315 315 313 311
347 359 350 358 341 326 357 9 30 63 206 238 251 288 295 297 249 242 279 292 307 288 282 281 279 291 296 298 308 325 325 325 323 321 320 319 318 316 315 311 311 310 309
312 20 44 197 212 225 231 275 331 25 191 289 277 272 272 265 280 263 274 292 292 281 277 270 271 273 281 297 311 319 317 318 317 316 315 315 314 313 312 310 307 307 307
315 319 35 35 117 98 76 95 92 63 127 207 258 272 279 272 281 278 273 291 294 290 274 273 264 277 299 299 303 312 308 310 311 312 313 312 312 311 308 307 306 305 304
307 360 51 51 62 74 80 114 104 95 93 162 296 292 302 299 279 257 260 287 300 294 275 267 270 271 299 300 303 309 303 306 307 309 309 309 309 309 307 305 305 305 303
63 82 104 90 62 64 62 72 85 68 107 173 238 273 283 285 283 272 260 249 262 289 293 276 286 297 301 294 302 301 293 300 303 306 307 307 307 307 306 305 305 304 304
123 114 88 87 65 60 70 75 28 297 101 294 272 279 279 272 278 269 267 272 262 264 279 285 289 295 301 303 307 300 292 302 301 303 304 305 305 304 305 304 304 304 303
166 144 153 136 113 62 64 128 269 332 327 300 294 283 276 278 271 271 273 277 270 261 271 286 289 300 298 299 303 296 293 291 293 299 302 303 303 303 303 303 304 305 304
183 175 161 150 179 240 222 259 284 290 277 285 286 283 279 279 277 275 270 267 263 262 266 284 296 299 293 292 295 296 298 298 291 296 302 304 304 303 303 304 304 304 305
184 162 151 186 209 204 253 275 267 275 271 274 281 278 280 283 284 283 279 273 271 276 271 278 289 295 293 296 299 297 294 293 296 297 303 303 302 302 302 303 303 303 303
181 182 191 211 212 202 257 286 282 276 275 275 275 276 276 269 268 272 275 275 281 284 283 281 285 292 294 297 300 304 306 304 299 301 300 299 299 300 299 300 301 302 301
221 214 209 236 250 244 267 269 271 271 271 278 281 278 278 277 278 277 278 278 276 273 279 281 286 292 295 305 306 306 303 307 298 290 294 294 295 290 292 294 295 296 297
254 227 242 254 279 281 299 283 276 277 281 281 285 283 282 276 283 282 282 283 279 273 275 275 279 283 290 296 302 304 305 307 302 295 301 294 288 286 287 283 291 295 297
268 272 274 271 273 292 306 305 296 283 282 279 279 282 287 289 277 276 282 283 281 278 275 274 275 278 286 295 299 297 294 289 285 292 300 290 286 288 289 291 297 297 299
242 254 273 269 272 292 305 305 304 280 275 276 276 274 277 285 281 282 287 286 281 279 278 272 271 278 282 288 284 286 291 291 285 280 281 286 291 289 294 290 292 295 300
235 251 260 262 267 283 295 298 297 286 281 282 283 283 281 283 290 293 289 285 289 290 288 281 282 285 289 294 299 300 298 298 297 293 286 283 293 302 294 284 287 296 300
243 256 267 261 264 276 294 295 291 277 282 286 288 284 282 287 295 293 282 281 285 290 295 296 290 288 287 288 293 279 277 283 292 293 293 298 296 315 302 283 286 295 296